Tacoma Narrows, WA
on Sunday, February 10, 2013

Sunday
Previous Day Next Day
Daily Summary
 ActualAverageRecord
Temperature
Mean Temperature °F °F  
Max Temperature 45°F 46°F 55°F (2002)
Min Temperature 41°F 36°F 30°F (2001)
Degree Days
Heating Degree Days 22    
Moisture
Dew Point 35°F   
Average Humidity 75    
Maximum Humidity 85    
Minimum Humidity 65    
Precipitation
Precipitation 0.00 in in in ()
Wind
Wind Speed 4 mph   
Max Wind Speed 9 mph   
Max Gust Speed mph   
Visibility 10 miles   
Events     
Averages and records for this station are not official NWS values.
Key: T is trace of precipitation, MM is missing value
Source: NWS Daily Summary
Seasonal Weather Averages
Time(PST)TemperatureDew PointHumidity Pressure Visibility Wind DirectionWind SpeedGust SpeedPrecipitationEvents Conditions
12:14 AM 42.8°F 37.4°F 81% 30.34 in 10.0 miles North 3.5 mph - N/A   Overcast
12:53 AM 42.1°F 37.0°F 82% 30.35 in 10.0 miles North 4.6 mph - N/A   Overcast
1:53 AM 42.1°F 37.9°F 85% 30.35 in 10.0 miles NNE 3.5 mph - N/A   Overcast
2:33 AM 42.8°F 37.4°F 81% 30.35 in 10.0 miles NNE 3.5 mph - N/A   Overcast
2:53 AM 42.1°F 37.9°F 85% 30.35 in 10.0 miles North 4.6 mph - N/A   Overcast
3:53 AM 42.1°F 37.9°F 85% 30.35 in 10.0 miles North 5.8 mph - N/A   Overcast
4:53 AM 42.1°F 37.9°F 85% 30.35 in 10.0 miles North 3.5 mph - N/A   Overcast
5:53 AM 42.1°F 37.0°F 82% 30.35 in 10.0 miles North 4.6 mph - N/A   Overcast
6:53 AM 42.1°F 37.0°F 82% 30.36 in 10.0 miles Calm Calm - N/A   Overcast
7:31 AM 42.8°F 35.6°F 76% 30.36 in 10.0 miles Calm Calm - N/A   Overcast
7:53 AM 41.0°F 35.1°F 79% 30.37 in 10.0 miles North 3.5 mph - N/A   Mostly Cloudy
8:53 AM 42.1°F 35.1°F 76% 30.37 in 10.0 miles Calm Calm - N/A   Scattered Clouds
9:29 AM 42.8°F 33.8°F 70% 30.37 in 10.0 miles NNE 5.8 mph - N/A   Mostly Cloudy
9:40 AM 42.8°F 35.6°F 76% 30.36 in 10.0 miles Variable 4.6 mph - N/A   Scattered Clouds
9:53 AM 43.0°F 35.1°F 74% 30.38 in 10.0 miles NE 4.6 mph - N/A   Scattered Clouds
10:15 AM 44.6°F 35.6°F 71% 30.37 in 10.0 miles Variable 4.6 mph - N/A   Mostly Cloudy
10:53 AM 45.0°F 36.0°F 71% 30.38 in 10.0 miles ENE 3.5 mph - N/A   Mostly Cloudy
11:53 AM 43.0°F 36.0°F 76% 30.38 in 10.0 miles NNE 4.6 mph - N/A   Overcast
12:53 PM 43.0°F 35.1°F 74% 30.37 in 10.0 miles North 6.9 mph - N/A   Mostly Cloudy
1:53 PM 44.1°F 35.1°F 71% 30.35 in 10.0 miles North 9.2 mph - N/A   Mostly Cloudy
2:53 PM 44.1°F 34.0°F 68% 30.36 in 10.0 miles NE 5.8 mph - N/A   Overcast
3:53 PM 44.1°F 33.1°F 65% 30.36 in 10.0 miles North 5.8 mph - N/A   Overcast
4:02 PM 44.6°F 33.8°F 66% 30.35 in 10.0 miles North 4.6 mph - N/A   Overcast
4:53 PM 44.1°F 33.1°F 65% 30.36 in 10.0 miles NNE 3.5 mph - N/A   Overcast
5:53 PM 43.0°F 34.0°F 71% 30.35 in 10.0 miles North 3.5 mph - N/A   Overcast
6:53 PM 43.0°F 34.0°F 71% 30.36 in 10.0 miles North 3.5 mph - N/A   Overcast
7:53 PM 43.0°F 34.0°F 71% 30.35 in 10.0 miles Calm Calm - N/A   Overcast
8:04 PM 42.8°F 33.8°F 70% 30.34 in 10.0 miles Calm Calm - N/A   Overcast
8:53 PM 42.1°F 34.0°F 73% 30.36 in 10.0 miles Calm Calm - N/A   Overcast
9:53 PM 42.1°F 35.1°F 76% 30.34 in 10.0 miles Calm Calm - N/A   Overcast
10:53 PM 42.1°F 35.1°F 76% 30.33 in 10.0 miles NNW 3.5 mph - N/A   Overcast
11:53 PM 42.1°F 34.0°F 73% 30.34 in 10.0 miles NW 3.5 mph - N/A   Overcast
Moon Phase
Feb. 10 Feb. 17 Feb. 25 Mar. 04 Mar. 11
Sunrise:07:22 AM (PST) Moon Rise:07:10 AM (PST)2/10
Sunset:05:27 PM (PST) Moon Set:06:31 PM (PST)2/10

Copyright © 2014 The Weather Underground, Inc.